| time (UTC) | temp F | wind direction | speed knots | gust knots | rain 1hr in | rain 24hr in | rain mn in | humidity % | barometer mb |
| 20260510011748 | 61 | 197 | 0.0 | 1.7 | 0.00 | 0.01 | 0.01 | 64 | 1029.1 |
| 20260510011246 | 61 | 214 | 0.0 | 1.7 | 0.00 | 0.01 | 0.01 | 65 | 1029.1 |
| 20260510010746 | 60 | 214 | 0.0 | 0.9 | 0.00 | 0.01 | 0.01 | 66 | 1029.1 |
| 20260510010242 | 60 | 233 | 0.0 | 0.9 | 0.00 | 0.01 | 0.01 | 65 | 1029.1 |
| 20260510005749 | 60 | 235 | 0.0 | 0.9 | 0.00 | 0.01 | 0.01 | 66 | 1029.2 |
| 20260510005236 | 59 | 287 | 0.0 | 0.9 | 0.00 | 0.01 | 0.01 | 69 | 1029.2 |
| 20260510004731 | 59 | 220 | 0.0 | 0.9 | 0.00 | 0.01 | 0.01 | 67 | 1029.2 |
| 20260510004223 | 59 | 214 | 0.0 | 0.9 | 0.00 | 0.01 | 0.01 | 67 | 1029.2 |
| 20260510003720 | 59 | 268 | 0.0 | 0.0 | 0.00 | 0.01 | 0.01 | 70 | 1029.2 |
| 20260510003212 | 58 | 294 | 0.0 | 0.0 | 0.00 | 0.01 | 0.01 | 69 | 1029.3 |
| 20260510002929 | 57 | 242 | 0.0 | 0.0 | 0.00 | 0.01 | 0.01 | 70 | 1029.3 |
| 20260510002210 | 57 | 266 | 0.0 | 0.0 | 0.00 | 0.01 | 0.01 | 72 | 1029.3 |
| 20260510001708 | 56 | 300 | 0.0 | 0.0 | 0.00 | 0.01 | 0.01 | 72 | 1029.3 |
| 20260510001428 | 56 | 300 | 0.0 | 0.0 | 0.00 | 0.01 | 0.01 | 74 | 1029.3 |
| 20260510000708 | 55 | 300 | 0.0 | 0.0 | 0.00 | 0.01 | 0.01 | 75 | 1029.3 |
| 20260510000205 | 54 | 300 | 0.0 | 0.0 | 0.00 | 0.01 | 0.01 | 74 | 1029.3 |
| 20260510000200 | 54 | 300 | 0.0 | 0.0 | 0.00 | 0.01 | 0.01 | 75 | 1029.2 |
| 20260509235208 | 54 | 300 | 0.0 | 0.0 | 0.00 | 0.01 | 0.01 | 76 | 1029.2 |
| 20260509234925 | 53 | 270 | 0.0 | 0.0 | 0.00 | 0.01 | 0.01 | 78 | 1029.2 |
| 20260509234206 | 53 | 273 | 0.0 | 0.0 | 0.00 | 0.01 | 0.01 | 78 | 1029.2 |
| 20260509233709 | 52 | 294 | 0.0 | 0.0 | 0.00 | 0.01 | 0.01 | 81 | 1029.2 |
| 20260509233201 | 51 | 294 | 0.0 | 0.0 | 0.00 | 0.01 | 0.01 | 80 | 1029.2 |
| 20260509232704 | 51 | 303 | 0.0 | 0.0 | 0.00 | 0.01 | 0.01 | 82 | 1029.3 |
| 20260509232202 | 51 | 303 | 0.0 | 0.0 | 0.00 | 0.01 | 0.01 | 82 | 1029.2 |
| 20260509231702 | 50 | 294 | 0.0 | 0.0 | 0.00 | 0.01 | 0.01 | 84 | 1029.3 |
| 20260509231202 | 49 | 294 | 0.0 | 0.0 | 0.00 | 0.01 | 0.01 | 86 | 1029.3 |
| 20260509231137 | 48 | 294 | 0.0 | 0.0 | 0.00 | 0.01 | 0.01 | 89 | 1029.3 |
| 20260509230202 | 48 | 294 | 0.0 | 0.0 | 0.00 | 0.01 | 0.01 | 90 | 1029.3 |
| 20260509225702 | 47 | 294 | 0.0 | 0.0 | 0.00 | 0.01 | 0.01 | 91 | 1029.3 |
| 20260509225204 | 47 | 294 | 0.0 | 0.0 | 0.00 | 0.01 | 0.01 | 93 | 1029.3 |
| 20260509224702 | 46 | 294 | 0.0 | 0.0 | 0.00 | 0.01 | 0.01 | 93 | 1029.3 |
| 20260509224201 | 45 | 294 | 0.0 | 0.0 | 0.00 | 0.01 | 0.01 | 95 | 1029.3 |
| 20260509223701 | 45 | 294 | 0.0 | 0.0 | 0.00 | 0.01 | 0.01 | 96 | 1029.3 |
| 20260509223202 | 44 | 294 | 0.0 | 0.0 | 0.00 | 0.01 | 0.01 | 96 | 1029.3 |
| 20260509222926 | 44 | 294 | 0.0 | 0.0 | 0.00 | 0.01 | 0.01 | 96 | 1029.3 |
| 20260509222424 | 43 | 294 | 0.0 | 0.0 | 0.00 | 0.01 | 0.01 | 96 | 1029.2 |
| 20260509221702 | 43 | 294 | 0.0 | 0.0 | 0.00 | 0.01 | 0.01 | 97 | 1029.1 |
| 20260509221202 | 43 | 38 | 0.0 | 0.0 | 0.00 | 0.01 | 0.01 | 97 | 1029.0 |
| 20260509220702 | 42 | 38 | 0.0 | 0.0 | 0.00 | 0.01 | 0.01 | 97 | 1029.1 |
| 20260509220157 | 42 | 38 | 0.0 | 0.0 | 0.00 | 0.01 | 0.01 | 96 | 1029.0 |
| 20260509215909 | 41 | 38 | 0.0 | 0.0 | 0.00 | 0.01 | 0.01 | 96 | 1028.9 |
| 20260509215143 | 40 | 38 | 0.0 | 0.0 | 0.00 | 0.01 | 0.01 | 96 | 1028.9 |
| 20260509214904 | 39 | 38 | 0.0 | 0.0 | 0.00 | 0.01 | 0.01 | 96 | 1028.9 |
| 20260509214132 | 39 | 38 | 0.0 | 0.0 | 0.00 | 0.01 | 0.01 | 96 | 1028.7 |
| 20260509213627 | 39 | 38 | 0.0 | 0.0 | 0.00 | 0.01 | 0.01 | 96 | 1028.8 |
| 20260509213120 | 38 | 38 | 0.0 | 0.0 | 0.00 | 0.01 | 0.01 | 96 | 1028.7 |
| 20260509213053 | 38 | 38 | 0.0 | 0.0 | 0.00 | 0.01 | 0.01 | 96 | 1028.6 |
| 20260509212110 | 38 | 38 | 0.0 | 0.0 | 0.00 | 0.01 | 0.01 | 96 | 1028.5 |
| 20260509211609 | 38 | 38 | 0.0 | 0.0 | 0.00 | 0.01 | 0.01 | 96 | 1028.4 |
| 20260509211110 | 38 | 38 | 0.0 | 0.0 | 0.00 | 0.01 | 0.01 | 96 | 1028.4 |
| 20260509210610 | 38 | 38 | 0.0 | 0.0 | 0.00 | 0.01 | 0.01 | 96 | 1028.2 |
| 20260509210109 | 38 | 38 | 0.0 | 0.0 | 0.00 | 0.01 | 0.01 | 96 | 1028.2 |
| 20260509205608 | 38 | 38 | 0.0 | 0.0 | 0.00 | 0.01 | 0.01 | 96 | 1028.1 |
| 20260509205108 | 38 | 38 | 0.0 | 0.0 | 0.00 | 0.01 | 0.01 | 96 | 1028.0 |
| 20260509204610 | 38 | 38 | 0.0 | 0.0 | 0.00 | 0.01 | 0.01 | 96 | 1028.0 |
| 20260509204106 | 38 | 38 | 0.0 | 0.0 | 0.00 | 0.01 | 0.01 | 95 | 1027.9 |
| 20260509203607 | 38 | 38 | 0.0 | 0.0 | 0.00 | 0.01 | 0.01 | 95 | 1027.8 |
| 20260509203106 | 38 | 38 | 0.0 | 0.0 | 0.00 | 0.01 | 0.01 | 95 | 1027.8 |
| 20260509202609 | 38 | 38 | 0.0 | 0.0 | 0.00 | 0.01 | 0.01 | 95 | 1027.7 |
| 20260509202104 | 38 | 38 | 0.0 | 0.0 | 0.00 | 0.01 | 0.01 | 95 | 1027.6 |
| 20260509201823 | 38 | 38 | 0.0 | 0.0 | 0.00 | 0.01 | 0.01 | 95 | 1027.6 |
| 20260509201104 | 38 | 38 | 0.0 | 0.0 | 0.00 | 0.01 | 0.01 | 95 | 1027.6 |
| 20260509200558 | 39 | 38 | 0.0 | 0.0 | 0.00 | 0.01 | 0.01 | 95 | 1027.6 |
| 20260509200313 | 39 | 38 | 0.0 | 0.0 | 0.00 | 0.01 | 0.01 | 95 | 1027.5 |
| 20260509195548 | 39 | 38 | 0.0 | 0.0 | 0.00 | 0.01 | 0.01 | 95 | 1027.4 |
| 20260509195038 | 39 | 38 | 0.0 | 0.0 | 0.00 | 0.01 | 0.01 | 96 | 1027.4 |
| 20260509194533 | 39 | 38 | 0.0 | 0.0 | 0.00 | 0.01 | 0.01 | 95 | 1027.3 |
| 20260509194028 | 39 | 38 | 0.0 | 0.0 | 0.00 | 0.01 | 0.01 | 95 | 1027.3 |
| 20260509193745 | 39 | 38 | 0.0 | 0.0 | 0.00 | 0.01 | 0.01 | 96 | 1027.2 |
| 20260509193015 | 39 | 38 | 0.0 | 0.0 | 0.00 | 0.01 | 0.01 | 96 | 1027.2 |
| 20260509192509 | 38 | 38 | 0.0 | 0.0 | 0.00 | 0.01 | 0.01 | 95 | 1027.2 |
| 20260509192003 | 38 | 38 | 0.0 | 0.0 | 0.00 | 0.01 | 0.01 | 95 | 1027.1 |
| 20260509191457 | 39 | 38 | 0.0 | 0.0 | 0.00 | 0.01 | 0.01 | 95 | 1027.0 |
| 20260509190954 | 39 | 38 | 0.0 | 0.0 | 0.00 | 0.01 | 0.01 | 95 | 1027.0 |
| 20260509190446 | 39 | 38 | 0.0 | 0.0 | 0.00 | 0.01 | 0.01 | 95 | 1027.0 |
| 20260509185938 | 38 | 38 | 0.0 | 0.0 | 0.00 | 0.01 | 0.01 | 95 | 1026.9 |
| 20260509185658 | 39 | 38 | 0.0 | 0.0 | 0.01 | 0.01 | 0.01 | 95 | 1026.8 |
| 20260509184928 | 39 | 38 | 0.0 | 0.0 | 0.01 | 0.01 | 0.01 | 95 | 1026.8 |
| 20260509184642 | 39 | 38 | 0.0 | 0.0 | 0.01 | 0.01 | 0.01 | 95 | 1026.6 |
| 20260509183917 | 39 | 38 | 0.0 | 0.0 | 0.01 | 0.01 | 0.01 | 95 | 1026.6 |
| 20260509183409 | 39 | 38 | 0.0 | 0.0 | 0.01 | 0.01 | 0.01 | 95 | 1026.5 |
| 20260509183129 | 39 | 38 | 0.0 | 0.0 | 0.01 | 0.01 | 0.01 | 95 | 1026.5 |
| 20260509182357 | 39 | 38 | 0.0 | 0.0 | 0.01 | 0.01 | 0.01 | 95 | 1026.5 |
| 20260509181853 | 39 | 38 | 0.0 | 0.0 | 0.01 | 0.01 | 0.01 | 95 | 1026.5 |
| 20260509181346 | 39 | 38 | 0.0 | 0.0 | 0.01 | 0.01 | 0.01 | 95 | 1026.3 |
| 20260509180839 | 39 | 38 | 0.0 | 0.0 | 0.01 | 0.01 | 0.01 | 95 | 1026.3 |
| 20260509180333 | 39 | 38 | 0.0 | 0.0 | 0.01 | 0.01 | 0.01 | 95 | 1026.3 |
| 20260509175829 | 40 | 38 | 0.0 | 0.0 | 0.00 | 0.00 | 0.01 | 95 | 1026.3 |
| 20260509175809 | 39 | 38 | 0.0 | 0.0 | 0.00 | 0.00 | 0.00 | 95 | 1026.3 |
| 20260509175049 | 40 | 38 | 0.0 | 0.0 | 0.00 | 0.00 | 0.00 | 95 | 1026.3 |
| 20260509174308 | 40 | 38 | 0.0 | 0.0 | 0.00 | 0.00 | 0.00 | 95 | 1026.3 |
| 20260509174253 | 40 | 38 | 0.0 | 0.0 | 0.00 | 0.00 | 0.00 | 95 | 1026.2 |
| 20260509173257 | 40 | 38 | 0.0 | 0.0 | 0.00 | 0.00 | 0.00 | 95 | 1026.3 |
| 20260509172751 | 40 | 38 | 0.0 | 0.0 | 0.00 | 0.00 | 0.00 | 95 | 1026.2 |
| 20260509172246 | 40 | 38 | 0.0 | 0.0 | 0.00 | 0.00 | 0.00 | 95 | 1026.2 |
| 20260509171746 | 40 | 38 | 0.0 | 0.0 | 0.00 | 0.00 | 0.00 | 95 | 1026.2 |
| 20260509171233 | 40 | 38 | 0.0 | 0.0 | 0.00 | 0.00 | 0.00 | 95 | 1026.2 |
| 20260509170728 | 40 | 38 | 0.0 | 0.0 | 0.00 | 0.00 | 0.00 | 95 | 1026.2 |
| 20260509170222 | 40 | 38 | 0.0 | 0.0 | 0.00 | 0.00 | 0.00 | 95 | 1026.2 |
| 20260509165718 | 40 | 38 | 0.0 | 0.0 | 0.00 | 0.00 | 0.00 | 95 | 1026.2 |
| 20260509165425 | 40 | 38 | 0.0 | 0.0 | 0.00 | 0.00 | 0.00 | 95 | 1026.1 |
| 20260509164703 | 40 | 38 | 0.0 | 0.0 | 0.00 | 0.00 | 0.00 | 95 | 1026.1 |
| 20260509164417 | 41 | 38 | 0.0 | 0.0 | 0.00 | 0.00 | 0.00 | 95 | 1026.2 |
| 20260509163647 | 41 | 38 | 0.0 | 0.0 | 0.00 | 0.00 | 0.00 | 95 | 1026.2 |
| 20260509163142 | 41 | 38 | 0.0 | 0.0 | 0.00 | 0.00 | 0.00 | 95 | 1026.2 |
| 20260509162635 | 41 | 38 | 0.0 | 0.0 | 0.00 | 0.00 | 0.00 | 95 | 1026.2 |
| 20260509162129 | 41 | 38 | 0.0 | 0.0 | 0.00 | 0.00 | 0.00 | 95 | 1026.1 |
| 20260509161623 | 41 | 38 | 0.0 | 0.0 | 0.00 | 0.00 | 0.00 | 95 | 1026.2 |
| 20260509161119 | 41 | 38 | 0.0 | 0.0 | 0.00 | 0.00 | 0.00 | 95 | 1026.2 |
| 20260509160613 | 41 | 38 | 0.0 | 0.0 | 0.00 | 0.00 | 0.00 | 95 | 1026.2 |
| 20260509160105 | 42 | 38 | 0.0 | 0.0 | 0.00 | 0.00 | 0.00 | 95 | 1026.2 |
| 20260509155559 | 41 | 38 | 0.0 | 0.0 | 0.00 | 0.00 | 0.00 | 95 | 1026.2 |
| 20260509155053 | 41 | 38 | 0.0 | 0.0 | 0.00 | 0.00 | 0.00 | 95 | 1026.2 |
| 20260509154811 | 41 | 38 | 0.0 | 0.0 | 0.00 | 0.00 | 0.00 | 95 | 1026.1 |
| 20260509154041 | 41 | 38 | 0.0 | 0.0 | 0.00 | 0.00 | 0.00 | 94 | 1026.2 |
| 20260509153536 | 42 | 38 | 0.0 | 0.0 | 0.00 | 0.00 | 0.00 | 94 | 1026.2 |
| 20260509153028 | 42 | 38 | 0.0 | 0.0 | 0.00 | 0.00 | 0.00 | 95 | 1026.3 |
| 20260509152753 | 42 | 38 | 0.0 | 0.0 | 0.00 | 0.00 | 0.00 | 95 | 1026.3 |
| 20260509152017 | 42 | 38 | 0.0 | 0.0 | 0.00 | 0.00 | 0.00 | 95 | 1026.3 |
| 20260509151517 | 42 | 38 | 0.0 | 0.0 | 0.00 | 0.00 | 0.00 | 95 | 1026.3 |
| 20260509151017 | 42 | 38 | 0.0 | 0.0 | 0.00 | 0.00 | 0.00 | 95 | 1026.3 |
| 20260509150515 | 42 | 38 | 0.0 | 0.0 | 0.00 | 0.00 | 0.00 | 95 | 1026.3 |
| 20260509150011 | 43 | 38 | 0.0 | 0.0 | 0.00 | 0.00 | 0.00 | 95 | 1026.3 |
| 20260509145511 | 43 | 38 | 0.0 | 0.0 | 0.00 | 0.00 | 0.00 | 95 | 1026.3 |
| 20260509145010 | 43 | 38 | 0.0 | 0.0 | 0.00 | 0.00 | 0.00 | 94 | 1026.3 |
| 20260509144508 | 43 | 38 | 0.0 | 0.0 | 0.00 | 0.00 | 0.00 | 94 | 1026.3 |
| 20260509144008 | 43 | 38 | 0.0 | 0.0 | 0.00 | 0.00 | 0.00 | 95 | 1026.3 |
| 20260509143725 | 43 | 38 | 0.0 | 0.0 | 0.00 | 0.00 | 0.00 | 94 | 1026.3 |
| 20260509143006 | 43 | 38 | 0.0 | 0.0 | 0.00 | 0.00 | 0.00 | 94 | 1026.3 |
| 20260509142507 | 43 | 38 | 0.0 | 0.0 | 0.00 | 0.00 | 0.00 | 94 | 1026.3 |
| 20260509142004 | 43 | 38 | 0.0 | 0.0 | 0.00 | 0.00 | 0.00 | 94 | 1026.3 |
| 20260509141503 | 43 | 38 | 0.0 | 0.0 | 0.00 | 0.00 | 0.00 | 94 | 1026.2 |
| 20260509141005 | 43 | 38 | 0.0 | 0.0 | 0.00 | 0.00 | 0.00 | 94 | 1026.2 |
| 20260509140504 | 44 | 38 | 0.0 | 0.0 | 0.00 | 0.00 | 0.00 | 94 | 1026.2 |
| 20260509140006 | 44 | 38 | 0.0 | 0.0 | 0.00 | 0.00 | 0.00 | 94 | 1026.3 |
| 20260509135458 | 44 | 38 | 0.0 | 0.0 | 0.00 | 0.00 | 0.00 | 94 | 1026.3 |
| 20260509134953 | 44 | 38 | 0.0 | 0.0 | 0.00 | 0.00 | 0.00 | 94 | 1026.3 |
| 20260509134450 | 44 | 38 | 0.0 | 0.0 | 0.00 | 0.00 | 0.00 | 94 | 1026.3 |
| 20260509133939 | 44 | 38 | 0.0 | 0.0 | 0.00 | 0.00 | 0.00 | 94 | 1026.3 |
| 20260509133433 | 44 | 38 | 0.0 | 0.0 | 0.00 | 0.00 | 0.00 | 94 | 1026.4 |
| 20260509132928 | 44 | 38 | 0.0 | 0.0 | 0.00 | 0.00 | 0.00 | 94 | 1026.4 |
| 20260509132638 | 44 | 38 | 0.0 | 0.0 | 0.00 | 0.00 | 0.00 | 94 | 1026.4 |
| 20260509131922 | 44 | 38 | 0.0 | 0.0 | 0.00 | 0.00 | 0.00 | 94 | 1026.5 |
| 20260509131422 | 45 | 38 | 0.0 | 0.0 | 0.00 | 0.00 | 0.00 | 94 | 1026.5 |
| 20260509130921 | 45 | 38 | 0.0 | 0.0 | 0.00 | 0.00 | 0.00 | 93 | 1026.5 |
| 20260509130419 | 45 | 38 | 0.0 | 0.0 | 0.00 | 0.00 | 0.00 | 93 | 1026.5 |
| 20260509125917 | 45 | 38 | 0.0 | 0.0 | 0.00 | 0.00 | 0.00 | 93 | 1026.5 |
| 20260509125426 | 45 | 38 | 0.0 | 0.0 | 0.00 | 0.00 | 0.00 | 93 | 1026.4 |
| 20260509124913 | 45 | 38 | 0.0 | 0.0 | 0.00 | 0.00 | 0.00 | 94 | 1026.4 |
| 20260509124411 | 45 | 38 | 0.0 | 0.0 | 0.00 | 0.00 | 0.00 | 94 | 1026.4 |
| 20260509124358 | 45 | 38 | 0.0 | 0.0 | 0.00 | 0.00 | 0.00 | 93 | 1026.4 |
| 20260509123851 | 45 | 38 | 0.0 | 0.0 | 0.00 | 0.00 | 0.00 | 93 | 1026.4 |
| 20260509123136 | 45 | 38 | 0.0 | 0.0 | 0.00 | 0.00 | 0.00 | 92 | 1026.4 |
| 20260509122408 | 46 | 38 | 0.0 | 0.0 | 0.00 | 0.00 | 0.00 | 93 | 1026.4 |
| 20260509121907 | 46 | 38 | 0.0 | 0.0 | 0.00 | 0.00 | 0.00 | 93 | 1026.4 |
| 20260509121408 | 46 | 38 | 0.0 | 0.0 | 0.00 | 0.00 | 0.00 | 93 | 1026.3 |
| 20260509120905 | 46 | 38 | 0.0 | 0.0 | 0.00 | 0.00 | 0.00 | 92 | 1026.3 |
| 20260509120404 | 46 | 38 | 0.0 | 0.0 | 0.00 | 0.00 | 0.00 | 92 | 1026.4 |
| 20260509115902 | 46 | 38 | 0.0 | 0.0 | 0.00 | 0.00 | 0.00 | 92 | 1026.4 |
| 20260509115401 | 46 | 38 | 0.0 | 0.0 | 0.00 | 0.00 | 0.00 | 92 | 1026.4 |
| 20260509115333 | 46 | 38 | 0.0 | 0.0 | 0.00 | 0.00 | 0.00 | 92 | 1026.4 |
| 20260509114354 | 46 | 38 | 0.0 | 0.0 | 0.00 | 0.00 | 0.00 | 92 | 1026.4 |
| 20260509113857 | 46 | 38 | 0.0 | 0.0 | 0.00 | 0.00 | 0.00 | 91 | 1026.3 |
| 20260509113352 | 47 | 38 | 0.0 | 0.0 | 0.00 | 0.00 | 0.00 | 91 | 1026.4 |
| 20260509112844 | 47 | 38 | 0.0 | 0.0 | 0.00 | 0.00 | 0.00 | 91 | 1026.4 |
| 20260509112337 | 47 | 38 | 0.0 | 0.0 | 0.00 | 0.00 | 0.00 | 91 | 1026.3 |
| 20260509111832 | 47 | 38 | 0.0 | 0.0 | 0.00 | 0.00 | 0.00 | 91 | 1026.2 |
| 20260509111325 | 47 | 38 | 0.0 | 0.0 | 0.00 | 0.00 | 0.00 | 91 | 1026.2 |
| 20260509110821 | 47 | 38 | 0.0 | 0.0 | 0.00 | 0.00 | 0.00 | 90 | 1026.2 |
| 20260509110315 | 47 | 38 | 0.0 | 0.0 | 0.00 | 0.00 | 0.00 | 90 | 1026.1 |
| 20260509105807 | 47 | 38 | 0.0 | 0.0 | 0.00 | 0.00 | 0.00 | 90 | 1026.1 |
| 20260509105300 | 47 | 38 | 0.0 | 0.0 | 0.00 | 0.00 | 0.00 | 89 | 1026.1 |
| 20260509104755 | 48 | 38 | 0.0 | 0.0 | 0.00 | 0.00 | 0.00 | 88 | 1026.0 |
| 20260509104252 | 48 | 38 | 0.0 | 0.9 | 0.00 | 0.00 | 0.00 | 88 | 1025.9 |
| 20260509103743 | 49 | 38 | 0.0 | 0.9 | 0.00 | 0.00 | 0.00 | 89 | 1026.0 |
| 20260509103500 | 48 | 30 | 0.0 | 0.0 | 0.00 | 0.00 | 0.00 | 89 | 1025.9 |
| 20260509102731 | 48 | 30 | 0.0 | 0.0 | 0.00 | 0.00 | 0.00 | 88 | 1025.8 |
| 20260509102227 | 49 | 30 | 0.0 | 0.9 | 0.00 | 0.00 | 0.00 | 88 | 1025.7 |
| 20260509101715 | 49 | 30 | 0.0 | 0.9 | 0.00 | 0.00 | 0.00 | 87 | 1025.7 |
| 20260509101208 | 49 | 43 | 0.0 | 0.0 | 0.00 | 0.00 | 0.00 | 88 | 1025.7 |
| 20260509100703 | 49 | 43 | 0.0 | 0.0 | 0.00 | 0.00 | 0.00 | 87 | 1025.6 |
| 20260509100203 | 49 | 43 | 0.0 | 0.0 | 0.00 | 0.00 | 0.00 | 87 | 1025.6 |
| 20260509095700 | 49 | 43 | 0.0 | 0.0 | 0.00 | 0.00 | 0.00 | 86 | 1025.6 |
| 20260509095201 | 49 | 43 | 0.0 | 0.0 | 0.00 | 0.00 | 0.00 | 86 | 1025.6 |
| 20260509094920 | 49 | 43 | 0.0 | 0.0 | 0.00 | 0.00 | 0.00 | 87 | 1025.6 |
| 20260509094159 | 49 | 43 | 0.0 | 0.0 | 0.00 | 0.00 | 0.00 | 86 | 1025.6 |
| 20260509093659 | 50 | 43 | 0.0 | 0.0 | 0.00 | 0.00 | 0.00 | 86 | 1025.6 |
| 20260509093159 | 50 | 43 | 0.0 | 0.0 | 0.00 | 0.00 | 0.00 | 85 | 1025.6 |
| 20260509092658 | 50 | 43 | 0.0 | 0.0 | 0.00 | 0.00 | 0.00 | 85 | 1025.5 |
| 20260509092159 | 50 | 43 | 0.0 | 0.0 | 0.00 | 0.00 | 0.00 | 84 | 1025.5 |
| 20260509091924 | 50 | 43 | 0.0 | 0.0 | 0.00 | 0.00 | 0.00 | 84 | 1025.5 |
| 20260509091200 | 51 | 43 | 0.0 | 0.0 | 0.00 | 0.00 | 0.00 | 84 | 1025.4 |
| 20260509091141 | 51 | 43 | 0.0 | 0.0 | 0.00 | 0.00 | 0.00 | 84 | 1025.4 |
| 20260509090156 | 51 | 43 | 0.0 | 0.0 | 0.00 | 0.00 | 0.00 | 84 | 1025.4 |
| 20260509085655 | 51 | 43 | 0.0 | 0.0 | 0.00 | 0.00 | 0.00 | 84 | 1025.3 |
| 20260509085155 | 51 | 43 | 0.0 | 0.0 | 0.00 | 0.00 | 0.00 | 83 | 1025.2 |
| 20260509084656 | 51 | 43 | 0.0 | 0.0 | 0.00 | 0.00 | 0.00 | 83 | 1025.2 |
| 20260509084157 | 51 | 43 | 0.0 | 0.0 | 0.00 | 0.00 | 0.00 | 82 | 1025.1 |
| 20260509083654 | 52 | 43 | 0.0 | 0.0 | 0.00 | 0.00 | 0.00 | 82 | 1025.1 |
| 20260509083156 | 52 | 43 | 0.0 | 0.0 | 0.00 | 0.00 | 0.00 | 81 | 1024.9 |
| 20260509082655 | 52 | 43 | 0.0 | 0.0 | 0.00 | 0.00 | 0.00 | 81 | 1024.9 |
| 20260509082158 | 52 | 43 | 0.0 | 0.0 | 0.00 | 0.00 | 0.00 | 81 | 1024.7 |
| 20260509081923 | 53 | 43 | 0.0 | 0.0 | 0.00 | 0.00 | 0.00 | 80 | 1024.7 |
| 20260509081243 | 53 | 43 | 0.0 | 0.0 | 0.00 | 0.00 | 0.00 | 79 | 1024.6 |
| 20260509080155 | 54 | 43 | 0.0 | 0.0 | 0.00 | 0.00 | 0.00 | 78 | 1024.4 |
| 20260509075655 | 54 | 43 | 0.0 | 0.9 | 0.00 | 0.00 | 0.00 | 77 | 1024.4 |
| 20260509075155 | 55 | 43 | 0.0 | 0.9 | 0.00 | 0.00 | 0.00 | 75 | 1024.2 |
| 20260509074658 | 55 | 42 | 0.0 | 0.9 | 0.00 | 0.00 | 0.00 | 75 | 1024.1 |
| 20260509074157 | 55 | 31 | 0.0 | 0.0 | 0.00 | 0.00 | 0.00 | 75 | 1024.1 |
| 20260509074136 | 56 | 22 | 0.0 | 0.9 | 0.00 | 0.00 | 0.00 | 75 | 1024.0 |
| 20260509073138 | 56 | 15 | 0.0 | 0.9 | 0.00 | 0.00 | 0.00 | 74 | 1024.0 |
| 20260509072632 | 56 | 48 | 0.0 | 0.0 | 0.00 | 0.00 | 0.00 | 73 | 1024.0 |
| 20260509072127 | 57 | 284 | 0.0 | 0.0 | 0.00 | 0.00 | 0.00 | 72 | 1023.9 |
| 20260509071622 | 58 | 284 | 0.0 | 0.0 | 0.00 | 0.00 | 0.00 | 70 | 1023.8 |
| 20260509071339 | 58 | 284 | 0.0 | 0.9 | 0.00 | 0.00 | 0.00 | 69 | 1023.7 |
| 20260509070616 | 59 | 284 | 0.0 | 0.9 | 0.00 | 0.00 | 0.00 | 68 | 1023.6 |
| 20260509070116 | 59 | 302 | 0.0 | 0.0 | 0.00 | 0.00 | 0.00 | 66 | 1023.6 |
| 20260509065615 | 60 | 302 | 0.0 | 0.0 | 0.00 | 0.00 | 0.00 | 64 | 1023.5 |
| 20260509065113 | 61 | 302 | 0.0 | 0.0 | 0.00 | 0.00 | 0.00 | 63 | 1023.5 |
| 20260509064613 | 62 | 302 | 0.0 | 0.0 | 0.00 | 0.00 | 0.00 | 61 | 1023.4 |
| 20260509064111 | 63 | 302 | 0.0 | 0.0 | 0.00 | 0.00 | 0.00 | 58 | 1023.4 |
| 20260509063611 | 64 | 302 | 0.0 | 0.0 | 0.00 | 0.00 | 0.00 | 56 | 1023.2 |
| 20260509063111 | 66 | 298 | 0.0 | 0.0 | 0.00 | 0.00 | 0.00 | 53 | 1023.2 |
| 20260509062609 | 66 | 298 | 0.0 | 0.0 | 0.00 | 0.00 | 0.00 | 54 | 1023.2 |
| 20260509062109 | 65 | 298 | 0.0 | 0.0 | 0.00 | 0.00 | 0.00 | 53 | 1023.2 |
| 20260509061831 | 65 | 298 | 0.0 | 0.0 | 0.00 | 0.00 | 0.00 | 53 | 1023.2 |
| 20260509061106 | 65 | 298 | 0.0 | 0.0 | 0.00 | 0.00 | 0.00 | 52 | 1023.1 |
| 20260509060607 | 65 | 314 | 0.0 | 0.0 | 0.00 | 0.00 | 0.00 | 53 | 1023.1 |
| 20260509060327 | 65 | 314 | 0.0 | 0.0 | 0.00 | 0.00 | 0.00 | 55 | 1023.1 |
| 20260509055607 | 64 | 253 | 0.0 | 0.9 | 0.00 | 0.00 | 0.00 | 53 | 1023.0 |
| 20260509055106 | 64 | 253 | 0.0 | 0.9 | 0.00 | 0.00 | 0.00 | 53 | 1023.0 |
| 20260509054605 | 65 | 296 | 0.0 | 0.0 | 0.00 | 0.00 | 0.00 | 53 | 1023.0 |
| 20260509054106 | 64 | 340 | 0.0 | 0.9 | 0.00 | 0.00 | 0.00 | 53 | 1023.0 |
| 20260509053819 | 64 | 38 | 0.0 | 0.9 | 0.00 | 0.00 | 0.00 | 53 | 1023.0 |
| 20260509053053 | 64 | 292 | 0.0 | 0.9 | 0.00 | 0.00 | 0.00 | 54 | 1023.0 |
| 20260509052547 | 64 | 251 | 0.0 | 1.7 | 0.00 | 0.00 | 0.00 | 55 | 1023.0 |
| 20260509052041 | 64 | 279 | 0.0 | 1.7 | 0.00 | 0.00 | 0.00 | 55 | 1023.0 |
| 20260509051535 | 64 | 301 | 0.0 | 1.7 | 0.00 | 0.00 | 0.00 | 55 | 1022.9 |
| 20260509051030 | 64 | 282 | 0.0 | 1.7 | 0.00 | 0.00 | 0.00 | 57 | 1022.9 |
| 20260509050523 | 64 | 296 | 0.0 | 1.7 | 0.00 | 0.00 | 0.00 | 55 | 1022.9 |
| 20260509050016 | 64 | 275 | 0.0 | 3.5 | 0.00 | 0.00 | 0.00 | 55 | 1022.9 |
| 20260509045512 | 64 | 292 | 0.0 | 3.5 | 0.00 | 0.00 | 0.00 | 56 | 1022.9 |
| 20260509045228 | 64 | 231 | 0.0 | 3.5 | 0.00 | 0.00 | 0.00 | 55 | 1022.9 |
| 20260509044458 | 64 | 206 | 0.0 | 3.5 | 0.00 | 0.00 | 0.00 | 53 | 1023.0 |
| 20260509043952 | 64 | 260 | 0.0 | 2.6 | 0.00 | 0.00 | 0.00 | 55 | 1023.0 |
| 20260509043447 | 64 | 287 | 0.0 | 2.6 | 0.00 | 0.00 | 0.00 | 55 | 1023.0 |
| 20260509043208 | 65 | 280 | 0.0 | 2.6 | 0.00 | 0.00 | 0.00 | 53 | 1023.1 |
| 20260509042434 | 64 | 291 | 0.0 | 0.0 | 0.00 | 0.00 | 0.00 | 53 | 1023.0 |
| 20260509041929 | 64 | 314 | 0.0 | 0.9 | 0.00 | 0.00 | 0.00 | 53 | 1023.1 |
| 20260509041423 | 64 | 225 | 0.0 | 0.9 | 0.00 | 0.00 | 0.00 | 53 | 1023.1 |
| 20260509040916 | 63 | 304 | 0.0 | 0.9 | 0.00 | 0.00 | 0.00 | 56 | 1023.0 |
| 20260509040410 | 62 | 207 | 0.0 | 0.9 | 0.00 | 0.00 | 0.00 | 56 | 1023.0 |
| 20260509035904 | 62 | 248 | 0.0 | 1.7 | 0.00 | 0.00 | 0.00 | 57 | 1023.0 |
| 20260509035400 | 62 | 298 | 0.0 | 1.7 | 0.00 | 0.00 | 0.00 | 56 | 1023.0 |
| 20260509035121 | 62 | 56 | 0.0 | 2.6 | 0.00 | 0.00 | 0.00 | 55 | 1023.0 |
| 20260509034349 | 62 | 67 | 0.0 | 2.6 | 0.00 | 0.00 | 0.00 | 55 | 1023.1 |
| 20260509033840 | 62 | 353 | 0.0 | 2.6 | 0.00 | 0.00 | 0.00 | 55 | 1023.1 |
| 20260509033334 | 62 | 219 | 0.0 | 2.6 | 0.00 | 0.00 | 0.00 | 58 | 1023.2 |
| 20260509032828 | 62 | 248 | 0.0 | 2.6 | 0.00 | 0.00 | 0.00 | 56 | 1023.2 |
| 20260509032324 | 62 | 347 | 0.0 | 1.7 | 0.00 | 0.00 | 0.00 | 56 | 1023.2 |
| 20260509031818 | 62 | 268 | 0.0 | 4.3 | 0.00 | 0.00 | 0.00 | 56 | 1023.2 |
| 20260509031312 | 62 | 329 | 0.0 | 4.3 | 0.00 | 0.00 | 0.00 | 56 | 1023.2 |
| 20260509030804 | 62 | 282 | 0.0 | 4.3 | 0.00 | 0.00 | 0.00 | 57 | 1023.2 |
| 20260509030515 | 62 | 316 | 0.0 | 4.3 | 0.00 | 0.00 | 0.00 | 56 | 1023.2 |
| 20260509025752 | 61 | 95 | 0.0 | 2.6 | 0.00 | 0.00 | 0.00 | 55 | 1023.4 |
| 20260509025246 | 62 | 113 | 0.0 | 2.6 | 0.00 | 0.00 | 0.00 | 53 | 1023.5 |
| 20260509024740 | 62 | 295 | 0.0 | 0.9 | 0.00 | 0.00 | 0.00 | 55 | 1023.5 |
| 20260509024234 | 61 | 38 | 0.0 | 1.7 | 0.00 | 0.00 | 0.00 | 55 | 1023.6 |
| 20260509023728 | 61 | 276 | 0.0 | 1.7 | 0.00 | 0.00 | 0.00 | 58 | 1023.7 |
| 20260509023222 | 61 | 185 | 0.0 | 1.7 | 0.00 | 0.00 | 0.00 | 55 | 1023.8 |
| 20260509022717 | 61 | 256 | 0.0 | 1.7 | 0.00 | 0.00 | 0.00 | 56 | 1023.8 |
| 20260509022210 | 61 | 243 | 0.0 | 0.9 | 0.00 | 0.00 | 0.00 | 58 | 1023.9 |
| 20260509021704 | 60 | 260 | 0.0 | 0.9 | 0.00 | 0.00 | 0.00 | 57 | 1024.0 |
| 20260509021159 | 60 | 57 | 0.0 | 0.9 | 0.00 | 0.00 | 0.00 | 57 | 1024.1 |
| 20260509020654 | 59 | 19 | 0.0 | 0.0 | 0.00 | 0.00 | 0.00 | 59 | 1024.2 |
| 20260509020146 | 59 | 208 | 0.0 | 1.7 | 0.00 | 0.00 | 0.00 | 60 | 1024.3 |
| 20260509015902 | 59 | 216 | 0.0 | 1.7 | 0.00 | 0.00 | 0.00 | 59 | 1024.3 |
| 20260509015135 | 59 | 289 | 0.0 | 2.6 | 0.00 | 0.00 | 0.00 | 58 | 1024.4 |
| 20260509014633 | 59 | 304 | 0.0 | 2.6 | 0.00 | 0.00 | 0.00 | 62 | 1024.5 |
| 20260509014121 | 59 | 292 | 0.0 | 1.7 | 0.00 | 0.00 | 0.00 | 60 | 1024.5 |
| 20260509013617 | 59 | 78 | 0.0 | 0.0 | 0.00 | 0.00 | 0.00 | 59 | 1024.5 |
| 20260509013112 | 59 | 285 | 0.0 | 0.9 | 0.00 | 0.00 | 0.00 | 60 | 1024.6 |
| 20260509012830 | 59 | 308 | 0.0 | 1.7 | 0.00 | 0.00 | 0.00 | 61 | 1024.6 |
| 20260509012058 | 59 | 306 | 0.0 | 2.6 | 0.00 | 0.00 | 0.00 | 61 | 1024.6 |